Tracking 30696 objects as of 15-Jun-2025
HD Live streaming from Space Station
objects crossing your sky now

GAOFEN 5 01A

Track GAOFEN 5 01A now!
10-day predictions


NORAD ID: 54640
Int'l Code: 2022-165A
Perigee: 705.7 km
Apogee: 708.9 km
Inclination: 98.2 °
Period: 98.8 minutes
Semi major axis: 7078 km
RCS: Unknown
Launch date: December 8, 2022
Source: People's Republic of China (PRC)
Launch site: Taiyaun Space Center, China (TSC)
Your satellite tracking list
Your tracking list is empty




NASA's NSSDC Master Catalog

Two Line Element Set (TLE):
1 54640U 22165A   25166.15562176  .00000465  00000-0  11152-3 0  9996
2 54640  98.2030 103.0187 0002228  70.7481 289.3959 14.57841375133955
Source of the keplerian elements: AFSPC